VA5EVR-13 Weather Reports


time (UTC)temp
F
wind
direction
speed
knots
gust
knots
rain 1hr
in
rain 24hr
in
rain mn
in
humidity
%
barometer
mb
20260504223012 39 338 13.9 13.9 0.00 0.00 0.00 67 88.8
20260504222012 39 22 16.5 16.5 0.00 0.00 0.00 67 88.8
20260504221012 40 0 13.0 13.0 0.00 0.00 0.00 66 88.8
20260504220012 40 0 15.6 15.6 0.00 0.00 0.00 66 88.8
20260504215011 40 338 15.6 15.6 0.00 0.00 0.00 66 88.8
20260504214011 39 338 14.8 14.8 0.00 0.00 0.00 66 88.8
20260504213012 39 338 18.2 18.2 0.00 0.00 0.00 67 88.8
20260504212011 39 0 12.2 12.2 0.00 0.00 0.00 67 88.8
20260504211012 39 22 17.4 17.4 0.00 0.00 0.00 67 88.8
20260504210012 40 0 15.6 15.6 0.00 0.00 0.00 66 88.8
20260504205011 40 22 23.5 23.5 0.00 0.00 0.00 66 88.8
20260504204012 40 338 13.9 13.9 0.00 0.00 0.00 67 88.8
20260504203011 39 338 14.8 14.8 0.00 0.00 0.00 67 88.8
20260504202011 39 22 15.6 15.6 0.00 0.00 0.00 67 88.8
20260504201012 39 22 10.4 10.4 0.00 0.00 0.00 66 88.8
20260504200011 39 22 13.9 13.9 0.00 0.00 0.00 67 88.8
20260504195012 39 338 10.4 10.4 0.00 0.00 0.00 65 88.8
20260504194012 40 0 15.6 15.6 0.00 0.00 0.00 65 88.8
20260504193012 40 338 19.1 19.1 0.00 0.00 0.00 65 88.8
20260504191012 40 22 15.6 15.6 0.00 0.00 0.00 64 88.8
20260504190011 40 338 11.3 11.3 0.00 0.00 0.00 65 88.8
20260504185012 40 338 13.0 13.0 0.00 0.00 0.00 65 88.8
20260504184012 39 292 20.9 20.9 0.00 0.00 0.00 67 88.8
20260504182012 38 338 13.9 13.9 0.00 0.00 0.00 69 88.8
20260504181011 38 22 15.6 15.6 0.00 0.00 0.00 68 88.8
20260504180011 38 338 10.4 10.4 0.00 0.00 0.00 69 88.8
20260504175012 38 338 19.1 19.1 0.00 0.00 0.00 70 88.8
20260504174012 38 0 12.2 12.2 0.00 0.00 0.00 70 88.8
20260504173012 38 292 7.8 7.8 0.00 0.00 0.00 71 88.8
20260504172013 37 22 15.6 15.6 0.00 0.00 0.00 73 88.8
20260504171012 36 0 13.9 13.9 0.00 0.00 0.00 74 88.8
20260504151012 34 22 19.1 19.1 0.00 0.00 0.00 75 88.8
20260504141011 34 0 18.2 18.2 0.00 0.00 0.00 77 88.8
20260504081011 36 338 8.7 8.7 0.00 0.00 0.00 91 88.8
20260504050012 41 22 8.7 8.7 0.00 0.00 0.00 83 88.8
20260504045011 42 22 7.8 7.8 0.00 0.00 0.00 83 88.8
20260504044012 43 22 14.8 14.8 0.00 0.00 0.00 81 88.8
20260504043011 43 22 17.4 17.4 0.00 0.00 0.00 76 88.8
20260504042012 44 22 20.9 20.9 0.00 0.00 0.00 72 88.8
20260504041012 44 22 15.6 15.6 0.00 0.00 0.00 65 88.8
20260504040011 44 22 16.5 16.5 0.00 0.00 0.00 64 88.8
20260504035011 45 22 11.3 11.3 0.00 0.00 0.00 64 88.8
20260504033012 45 22 13.0 13.0 0.00 0.00 0.00 64 88.8
20260504032012 46 22 7.8 7.8 0.00 0.00 0.00 63 88.8
20260504031012 47 22 9.6 9.6 0.00 0.00 0.00 62 88.8
20260504030012 48 22 8.7 8.7 0.00 0.00 0.00 61 88.8
20260504025011 48 22 13.9 13.9 0.00 0.00 0.00 60 88.8
20260504024012 50 22 9.6 9.6 0.00 0.00 0.00 59 88.8
20260504023013 51 45 17.4 17.4 0.00 0.00 0.00 56 88.8
20260504022012 52 22 20.9 20.9 0.00 0.00 0.00 50 88.8
20260504021012 53 0 13.9 13.9 0.00 0.00 0.00 48 88.8
20260504020012 53 0 15.6 15.6 0.00 0.00 0.00 48 88.8
20260504015011 54 22 14.8 14.8 0.00 0.00 0.00 47 88.8
20260504014012 54 338 15.6 15.6 0.00 0.00 0.00 50 88.8
20260504013012 54 315 15.6 15.6 0.00 0.00 0.00 50 88.8
20260504012011 54 315 14.8 14.8 0.00 0.00 0.00 50 88.8
20260504011012 55 315 22.6 22.6 0.00 0.00 0.00 47 88.8
20260504010011 56 338 21.7 21.7 0.00 0.00 0.00 44 88.8
20260504005011 56 0 13.9 13.9 0.00 0.00 0.00 43 88.8
20260504004012 57 0 19.1 19.1 0.00 0.00 0.00 44 88.8
20260504003012 58 338 18.2 18.2 0.00 0.00 0.00 43 88.8
20260504002012 59 0 21.7 21.7 0.00 0.00 0.00 41 88.8
20260504001011 60 315 17.4 17.4 0.00 0.00 0.00 41 88.8
20260504000012 60 315 21.7 21.7 0.00 0.00 0.00 41 88.8
20260503235011 60 292 16.5 16.5 0.00 0.00 0.00 41 88.8
20260503234011 61 338 22.6 22.6 0.00 0.00 0.00 40 88.8
20260503233012 61 22 18.2 18.2 0.00 0.00 0.00 38 88.8
20260503232011 62 315 23.5 23.5 0.00 0.00 0.00 37 88.8
20260503231011 62 0 25.2 25.2 0.00 0.00 0.00 37 88.8
20260503230012 63 315 24.3 24.3 0.00 0.00 0.00 36 88.8
20260503225011 63 22 29.5 29.5 0.00 0.00 0.00 37 88.8
20260503224012 65 315 24.3 24.3 0.00 0.00 0.00 38 88.8